Location: The Saddle
(36.8333°N, 80.3417°W)
Time: 07:05:16
(UTC-05:00)

Vanguard 2 Rocket - Pass Details

Date: 11 December 2023
Orbit: 555 x 3309 km, 32.9° (Epoch: 02 March)

Event Time Altitude Azimuth Distance (km) Brightness Sun altitude
Rises 12:46:19 0° 237° (WSW) 5,018 11.2 29.7°
Reaches altitude 10° 12:49:08 10° 234° (SW) 4,331 11.1 29.6°
Maximum altitude 13:01:50 63° 157° (SSE) 2,946 10.4 29.1°
Drops below altitude 10° 13:21:04 10° 83° (E) 6,255 11.0 28.1°
Sets 13:26:06 0° 81° (E) 7,288 11.3 27.8°
